N395T KMQI-KISP

Flight info

Callsign N395T
Flight time 1h 33m
Altitude 23000
Route KALDA Q439 SARDI
Aircraft PC12/L-SDFGRWY/S

Departure

Time 2026-04-27 23:21
Airport Dare County Regional Airport (KMQI)

Arrival

Time 2026-04-28 00:55
Airport Long Island MacArthur Airport (KISP)
Time Latitude Longitude Altitude Speed Heading
2026-04-27 23:04 35.91667 -75.69999 24 ft 0 kts 36°
2026-04-27 23:19 35.91677 -75.69982 15 ft 5 kts 92°
2026-04-27 23:19 35.91644 -75.69971 15 ft 8 kts 213°
2026-04-27 23:19 35.91586 -75.70024 15 ft 10 kts 218°
2026-04-27 23:19 35.91543 -75.70063 14 ft 9 kts 202°
2026-04-27 23:20 35.91494 -75.70013 15 ft 9 kts 112°
2026-04-27 23:20 35.91501 -75.69974 15 ft 5 kts 43°
2026-04-27 23:20 35.91609 -75.69871 15 ft 43 kts 37°
2026-04-27 23:20 35.91962 -75.69531 37 ft 79 kts 37°
2026-04-27 23:21 35.92424 -75.69089 243 ft 91 kts 37°
2026-04-27 23:21 35.92967 -75.68615 573 ft 101 kts 31°
2026-04-27 23:21 35.93681 -75.68202 895 ft 122 kts 20°
2026-04-27 23:21 35.94487 -75.67942 1521 ft 119 kts 14°
2026-04-27 23:22 35.95354 -75.67829 1867 ft 132 kts
2026-04-27 23:22 35.96309 -75.67845 2211 ft 142 kts
2026-04-27 23:22 35.97318 -75.67836 2524 ft 148 kts
2026-04-27 23:22 35.98365 -75.67811 2864 ft 153 kts
2026-04-27 23:23 35.99446 -75.67782 3194 ft 158 kts
2026-04-27 23:23 36.00560 -75.67752 3529 ft 161 kts
2026-04-27 23:23 36.01700 -75.67720 3785 ft 169 kts
2026-04-27 23:23 36.02921 -75.67684 3792 ft 185 kts
2026-04-27 23:24 36.04249 -75.67646 3794 ft 196 kts
2026-04-27 23:24 36.05640 -75.67609 3794 ft 203 kts
2026-04-27 23:24 36.07069 -75.67571 3795 ft 207 kts
2026-04-27 23:24 36.08516 -75.67533 3797 ft 209 kts
2026-04-27 23:25 36.09975 -75.67493 3783 ft 211 kts
2026-04-27 23:25 36.11432 -75.67454 3783 ft 212 kts
2026-04-27 23:25 36.12908 -75.67415 3788 ft 212 kts
2026-04-27 23:25 36.14371 -75.67376 3958 ft 205 kts
2026-04-27 23:26 36.15738 -75.67341 4448 ft 188 kts
2026-04-27 23:26 36.17014 -75.67307 4953 ft 179 kts
2026-04-27 23:26 36.18242 -75.67273 5445 ft 174 kts
2026-04-27 23:26 36.19434 -75.67240 5940 ft 169 kts
2026-04-27 23:27 36.20597 -75.67207 6437 ft 166 kts
2026-04-27 23:27 36.21744 -75.67176 6923 ft 164 kts 360°
2026-04-27 23:27 36.22879 -75.67145 7405 ft 161 kts 359°
2026-04-27 23:27 36.23981 -75.67114 7880 ft 160 kts 359°
2026-04-27 23:28 36.25110 -75.67083 8261 ft 164 kts 359°
2026-04-27 23:28 36.26258 -75.67052 8635 ft 167 kts 359°
2026-04-27 23:28 36.27435 -75.67019 9016 ft 170 kts 359°
2026-04-27 23:28 36.28624 -75.66986 9404 ft 172 kts 359°
2026-04-27 23:29 36.29826 -75.66953 9766 ft 174 kts 359°
2026-04-27 23:29 36.31053 -75.66920 10110 ft 178 kts 359°
2026-04-27 23:29 36.32305 -75.66886 10423 ft 181 kts 359°
2026-04-27 23:29 36.33579 -75.66850 10728 ft 183 kts 359°
2026-04-27 23:30 36.34859 -75.66816 11037 ft 185 kts 359°
2026-04-27 23:30 36.36131 -75.66781 11343 ft 186 kts 360°
2026-04-27 23:30 36.37430 -75.66745 11661 ft 187 kts 360°
2026-04-27 23:30 36.38734 -75.66709 11980 ft 187 kts 360°
2026-04-27 23:31 36.40037 -75.66674 12298 ft 188 kts
2026-04-27 23:31 36.41354 -75.66638 12560 ft 191 kts
2026-04-27 23:31 36.42695 -75.66601 12813 ft 194 kts
2026-04-27 23:31 36.44053 -75.66564 13075 ft 196 kts
2026-04-27 23:32 36.45427 -75.66526 13322 ft 198 kts
2026-04-27 23:32 36.46808 -75.66488 13582 ft 200 kts
2026-04-27 23:32 36.48205 -75.66450 13843 ft 201 kts
2026-04-27 23:32 36.49609 -75.66411 14102 ft 202 kts
2026-04-27 23:33 36.51016 -75.66372 14333 ft 203 kts
2026-04-27 23:33 36.52434 -75.66333 14566 ft 204 kts
2026-04-27 23:33 36.53853 -75.66294 14800 ft 204 kts
2026-04-27 23:33 36.55278 -75.66255 15036 ft 205 kts
2026-04-27 23:34 36.56689 -75.66216 15273 ft 205 kts
2026-04-27 23:34 36.58123 -75.66177 15516 ft 206 kts
2026-04-27 23:34 36.59559 -75.66137 15759 ft 206 kts
2026-04-27 23:34 36.60994 -75.66098 16002 ft 206 kts
2026-04-27 23:35 36.62426 -75.66058 16242 ft 206 kts
2026-04-27 23:35 36.63862 -75.66019 16489 ft 207 kts
2026-04-27 23:35 36.65304 -75.65979 16740 ft 207 kts
2026-04-27 23:35 36.66743 -75.65939 16993 ft 207 kts
2026-04-27 23:36 36.68182 -75.65899 17249 ft 207 kts
2026-04-27 23:36 36.69624 -75.65860 17505 ft 207 kts 360°
2026-04-27 23:36 36.71068 -75.65820 17760 ft 207 kts
2026-04-27 23:36 36.72493 -75.65780 18020 ft 207 kts 360°
2026-04-27 23:37 36.73937 -75.65740 18286 ft 207 kts 360°
2026-04-27 23:37 36.75379 -75.65701 18546 ft 207 kts 360°
2026-04-27 23:37 36.76825 -75.65661 18780 ft 207 kts 360°
2026-04-27 23:37 36.78266 -75.65621 19014 ft 207 kts 360°
2026-04-27 23:38 36.79714 -75.65581 19243 ft 208 kts 359°
2026-04-27 23:38 36.81156 -75.65541 19479 ft 208 kts 359°
2026-04-27 23:38 36.82602 -75.65501 19715 ft 208 kts 359°
2026-04-27 23:38 36.84052 -75.65461 19959 ft 208 kts 359°
2026-04-27 23:39 36.85481 -75.65421 20190 ft 208 kts 359°
2026-04-27 23:39 36.86931 -75.65381 20435 ft 209 kts 359°
2026-04-27 23:39 36.88384 -75.65341 20681 ft 209 kts 359°
2026-04-27 23:39 36.89836 -75.65301 20927 ft 209 kts 359°
2026-04-27 23:40 36.91297 -75.65260 21175 ft 209 kts 359°
2026-04-27 23:40 36.92753 -75.65220 21427 ft 210 kts 359°
2026-04-27 23:40 36.94212 -75.65179 21675 ft 210 kts 359°
2026-04-27 23:40 36.95676 -75.65138 21935 ft 210 kts 359°
2026-04-27 23:41 36.97136 -75.65098 22187 ft 210 kts 358°
2026-04-27 23:41 36.98601 -75.65057 22415 ft 212 kts 358°
2026-04-27 23:41 37.00079 -75.65016 22573 ft 213 kts 358°
2026-04-27 23:41 37.01574 -75.64974 22706 ft 215 kts 358°
2026-04-27 23:42 37.03078 -75.64932 22833 ft 216 kts 358°
2026-04-27 23:42 37.04586 -75.64890 22966 ft 217 kts 358°
2026-04-27 23:42 37.06082 -75.64848 23100 ft 218 kts 358°
2026-04-27 23:42 37.07605 -75.64805 23234 ft 219 kts 358°
2026-04-27 23:43 37.09138 -75.64763 23273 ft 223 kts 358°
2026-04-27 23:43 37.10706 -75.64720 23274 ft 227 kts 358°
2026-04-27 23:43 37.12304 -75.64675 23277 ft 231 kts 358°
2026-04-27 23:43 37.13918 -75.64629 23278 ft 233 kts 358°
2026-04-27 23:44 37.15551 -75.64583 23276 ft 235 kts 358°
2026-04-27 23:44 37.17198 -75.64537 23278 ft 237 kts 358°
2026-04-27 23:44 37.18828 -75.64492 23280 ft 238 kts 358°
2026-04-27 23:44 37.20507 -75.64445 23283 ft 239 kts 358°
2026-04-27 23:45 37.22168 -75.64398 23280 ft 239 kts 358°
2026-04-27 23:45 37.23832 -75.64351 23279 ft 239 kts 358°
2026-04-27 23:45 37.25479 -75.64305 23281 ft 239 kts 358°
2026-04-27 23:45 37.27146 -75.64259 23279 ft 240 kts 358°
2026-04-27 23:46 37.28812 -75.64212 23278 ft 240 kts 358°
2026-04-27 23:46 37.30479 -75.64165 23275 ft 239 kts 358°
2026-04-27 23:46 37.32143 -75.64119 23277 ft 239 kts 358°
2026-04-27 23:46 37.33810 -75.64072 23280 ft 239 kts 358°
2026-04-27 23:47 37.35472 -75.64025 23279 ft 239 kts 358°
2026-04-27 23:47 37.37137 -75.63978 23282 ft 239 kts 358°
2026-04-27 23:47 37.38796 -75.63932 23283 ft 239 kts 358°
2026-04-27 23:47 37.40457 -75.63885 23281 ft 239 kts 358°
2026-04-27 23:48 37.42122 -75.63838 23275 ft 238 kts 358°
2026-04-27 23:48 37.43779 -75.63792 23277 ft 238 kts 358°
2026-04-27 23:48 37.45439 -75.63745 23277 ft 238 kts 358°
2026-04-27 23:48 37.47094 -75.63698 23277 ft 238 kts 358°
2026-04-27 23:49 37.48732 -75.63652 23283 ft 238 kts 358°
2026-04-27 23:49 37.50385 -75.63606 23282 ft 238 kts 358°
2026-04-27 23:49 37.52041 -75.63559 23283 ft 237 kts 358°
2026-04-27 23:49 37.53690 -75.63513 23280 ft 237 kts 358°
2026-04-27 23:50 37.55345 -75.63466 23277 ft 237 kts 358°
2026-04-27 23:50 37.56996 -75.63419 23277 ft 237 kts 358°
2026-04-27 23:50 37.58650 -75.63373 23274 ft 237 kts 358°
2026-04-27 23:50 37.60298 -75.63326 23278 ft 237 kts 358°
2026-04-27 23:51 37.61946 -75.63279 23277 ft 237 kts 358°
2026-04-27 23:51 37.63597 -75.63233 23273 ft 237 kts 358°
2026-04-27 23:51 37.65246 -75.63186 23276 ft 237 kts 358°
2026-04-27 23:51 37.66869 -75.63140 23289 ft 237 kts 358°
2026-04-27 23:52 37.68514 -75.63093 23282 ft 236 kts 358°
2026-04-27 23:52 37.70161 -75.63047 23282 ft 236 kts 358°
2026-04-27 23:52 37.71803 -75.63000 23285 ft 236 kts 358°
2026-04-27 23:52 37.73449 -75.62953 23286 ft 236 kts 358°
2026-04-27 23:53 37.75089 -75.62907 23285 ft 236 kts 358°
2026-04-27 23:53 37.76731 -75.62860 23284 ft 236 kts 358°
2026-04-27 23:53 37.78374 -75.62814 23287 ft 236 kts 358°
2026-04-27 23:53 37.80018 -75.62767 23289 ft 236 kts 358°
2026-04-27 23:54 37.81658 -75.62720 23285 ft 236 kts 358°
2026-04-27 23:54 37.83301 -75.62665 23286 ft 236 kts 359°
2026-04-27 23:54 37.84867 -75.62086 23288 ft 244 kts 23°
2026-04-27 23:54 37.86306 -75.60924 23294 ft 246 kts 27°
2026-04-27 23:55 37.87724 -75.59702 23289 ft 247 kts 28°
2026-04-27 23:55 37.89152 -75.58488 23285 ft 247 kts 27°
2026-04-27 23:55 37.90587 -75.57288 23291 ft 247 kts 27°
2026-04-27 23:55 37.92026 -75.56082 23296 ft 247 kts 27°
2026-04-27 23:56 37.93463 -75.54873 23288 ft 248 kts 27°
2026-04-27 23:56 37.94896 -75.53666 23285 ft 248 kts 27°
2026-04-27 23:56 37.96334 -75.52455 23290 ft 248 kts 27°
2026-04-27 23:56 37.97771 -75.51245 23292 ft 248 kts 27°
2026-04-27 23:57 37.99207 -75.50035 23291 ft 248 kts 27°
2026-04-27 23:57 38.00625 -75.48839 23281 ft 248 kts 27°
2026-04-27 23:57 38.02078 -75.47614 23282 ft 248 kts 27°
2026-04-27 23:57 38.03490 -75.46422 23291 ft 248 kts 27°
2026-04-27 23:58 38.04931 -75.45206 23281 ft 248 kts 27°
2026-04-27 23:58 38.06353 -75.44005 23290 ft 248 kts 27°
2026-04-27 23:58 38.07799 -75.42783 23289 ft 247 kts 27°
2026-04-27 23:58 38.09231 -75.41572 23289 ft 247 kts 27°
2026-04-27 23:59 38.10665 -75.40359 23294 ft 247 kts 27°
2026-04-27 23:59 38.12097 -75.39148 23277 ft 248 kts 27°
2026-04-27 23:59 38.13529 -75.37935 23294 ft 247 kts 27°
2026-04-27 23:59 38.14964 -75.36719 23289 ft 247 kts 27°
2026-04-28 00:00 38.16395 -75.35507 23286 ft 247 kts 27°
2026-04-28 00:00 38.17827 -75.34293 23277 ft 247 kts 27°
2026-04-28 00:00 38.19260 -75.33078 23292 ft 247 kts 27°
2026-04-28 00:00 38.20692 -75.31862 23288 ft 247 kts 27°
2026-04-28 00:01 38.22122 -75.30648 23281 ft 247 kts 27°
2026-04-28 00:01 38.23552 -75.29433 23300 ft 247 kts 27°
2026-04-28 00:01 38.24990 -75.28235 23307 ft 244 kts 22°
2026-04-28 00:01 38.26505 -75.27422 23308 ft 238 kts 14°
2026-04-28 00:02 38.28067 -75.26695 23305 ft 239 kts 14°
2026-04-28 00:02 38.29626 -75.25954 23310 ft 239 kts 14°
2026-04-28 00:02 38.31184 -75.25197 23310 ft 240 kts 15°
2026-04-28 00:02 38.32217 -75.24695 23306 ft 240 kts 15°
2026-04-28 00:03 38.33776 -75.23940 23312 ft 240 kts 15°
2026-04-28 00:03 38.35339 -75.23186 23319 ft 240 kts 15°
2026-04-28 00:03 38.36897 -75.22432 23313 ft 240 kts 15°
2026-04-28 00:03 38.38464 -75.21674 23313 ft 240 kts 15°
2026-04-28 00:04 38.40026 -75.20917 23320 ft 240 kts 15°
2026-04-28 00:04 38.43157 -75.19400 23310 ft 240 kts 15°
2026-04-28 00:04 38.44699 -75.18653 23319 ft 240 kts 15°
2026-04-28 00:05 38.46258 -75.17897 23318 ft 239 kts 15°
2026-04-28 00:05 38.47812 -75.17143 23321 ft 239 kts 15°
2026-04-28 00:05 38.49366 -75.16388 23319 ft 239 kts 15°
2026-04-28 00:05 38.50926 -75.15630 23310 ft 239 kts 15°
2026-04-28 00:06 38.52483 -75.14874 23315 ft 239 kts 15°
2026-04-28 00:06 38.54036 -75.14119 23322 ft 239 kts 15°
2026-04-28 00:06 38.55593 -75.13362 23308 ft 239 kts 15°
2026-04-28 00:06 38.57148 -75.12605 23323 ft 239 kts 15°
2026-04-28 00:07 38.58702 -75.11849 23314 ft 239 kts 15°
2026-04-28 00:07 38.60253 -75.11093 23321 ft 239 kts 15°
2026-04-28 00:07 38.61813 -75.10333 23324 ft 239 kts 15°
2026-04-28 00:07 38.63364 -75.09577 23321 ft 238 kts 15°
2026-04-28 00:08 38.64886 -75.08739 23319 ft 242 kts 25°
2026-04-28 00:08 38.66203 -75.07349 23317 ft 246 kts 35°
2026-04-28 00:08 38.67469 -75.05865 23317 ft 247 kts 35°
2026-04-28 00:08 38.68726 -75.04402 23325 ft 247 kts 35°
2026-04-28 00:09 38.70005 -75.02936 23322 ft 247 kts 34°
2026-04-28 00:09 38.71283 -75.01469 23316 ft 247 kts 35°
2026-04-28 00:09 38.72564 -74.99995 23324 ft 247 kts 35°
2026-04-28 00:09 38.73845 -74.98519 23328 ft 247 kts 35°
2026-04-28 00:10 38.75120 -74.97049 23321 ft 247 kts 35°
2026-04-28 00:10 38.76396 -74.95577 23326 ft 247 kts 35°
2026-04-28 00:10 38.77672 -74.94106 23324 ft 246 kts 35°
2026-04-28 00:10 38.78969 -74.92691 23333 ft 242 kts 30°
2026-04-28 00:11 38.80293 -74.91341 23328 ft 244 kts 32°
2026-04-28 00:11 38.81584 -74.89969 23334 ft 244 kts 32°
2026-04-28 00:11 38.82897 -74.88595 23331 ft 243 kts 32°
2026-04-28 00:11 38.84215 -74.87233 23332 ft 243 kts 32°
2026-04-28 00:12 38.85533 -74.85870 23334 ft 243 kts 32°
2026-04-28 00:12 38.86855 -74.84497 23332 ft 243 kts 32°
2026-04-28 00:12 38.88169 -74.83130 23335 ft 243 kts 32°
2026-04-28 00:12 38.89486 -74.81762 23331 ft 243 kts 32°
2026-04-28 00:13 38.90802 -74.80393 23331 ft 243 kts 32°
2026-04-28 00:13 38.92114 -74.79029 23332 ft 243 kts 32°
2026-04-28 00:13 38.93426 -74.77663 23332 ft 243 kts 32°
2026-04-28 00:13 38.94721 -74.76315 23329 ft 243 kts 32°
2026-04-28 00:14 38.96034 -74.74947 23328 ft 243 kts 32°
2026-04-28 00:14 38.97339 -74.73575 23333 ft 243 kts 33°
2026-04-28 00:14 38.98627 -74.72183 23329 ft 243 kts 33°
2026-04-28 00:14 38.99924 -74.70779 23328 ft 242 kts 33°
2026-04-28 00:15 39.01217 -74.69390 23332 ft 242 kts 33°
2026-04-28 00:15 39.02509 -74.68003 23331 ft 242 kts 33°
2026-04-28 00:15 39.03803 -74.66612 23329 ft 242 kts 33°
2026-04-28 00:15 39.05093 -74.65223 23331 ft 242 kts 33°
2026-04-28 00:16 39.06389 -74.63828 23328 ft 242 kts 33°
2026-04-28 00:16 39.07676 -74.62441 23329 ft 241 kts 33°
2026-04-28 00:16 39.08963 -74.61054 23329 ft 241 kts 33°
2026-04-28 00:16 39.10249 -74.59667 23328 ft 241 kts 33°
2026-04-28 00:17 39.11532 -74.58283 23328 ft 241 kts 33°
2026-04-28 00:17 39.12815 -74.56898 23328 ft 241 kts 32°
2026-04-28 00:17 39.14097 -74.55514 23328 ft 240 kts 32°
2026-04-28 00:17 39.15362 -74.54147 23323 ft 240 kts 32°
2026-04-28 00:18 39.16647 -74.52759 23320 ft 240 kts 33°
2026-04-28 00:18 39.17923 -74.51378 23321 ft 240 kts 33°
2026-04-28 00:18 39.19201 -74.49995 23326 ft 240 kts 33°
2026-04-28 00:18 39.20476 -74.48616 23318 ft 240 kts 33°
2026-04-28 00:19 39.21755 -74.47230 23318 ft 239 kts 32°
2026-04-28 00:19 39.23034 -74.45845 23319 ft 239 kts 33°
2026-04-28 00:19 39.24309 -74.44462 23323 ft 239 kts 33°
2026-04-28 00:19 39.25586 -74.43076 23320 ft 239 kts 33°
2026-04-28 00:20 39.26858 -74.41697 23319 ft 239 kts 33°
2026-04-28 00:20 39.28115 -74.40332 23324 ft 239 kts 33°
2026-04-28 00:20 39.29386 -74.38951 23322 ft 239 kts 33°
2026-04-28 00:20 39.30658 -74.37569 23319 ft 239 kts 33°
2026-04-28 00:21 39.31941 -74.36175 23209 ft 242 kts 33°
2026-04-28 00:21 39.33241 -74.34763 23076 ft 246 kts 33°
2026-04-28 00:21 39.34555 -74.33331 22943 ft 248 kts 33°
2026-04-28 00:21 39.35879 -74.31886 22817 ft 249 kts 33°
2026-04-28 00:22 39.37208 -74.30438 22684 ft 250 kts 33°
2026-04-28 00:22 39.38538 -74.28988 22554 ft 251 kts 33°
2026-04-28 00:22 39.39872 -74.27533 22426 ft 251 kts 33°
2026-04-28 00:22 39.41190 -74.26095 22297 ft 251 kts 33°
2026-04-28 00:23 39.42522 -74.24640 22161 ft 251 kts 34°
2026-04-28 00:23 39.43855 -74.23184 22038 ft 250 kts 34°
2026-04-28 00:23 39.45183 -74.21732 21905 ft 250 kts 34°
2026-04-28 00:23 39.46511 -74.20280 21783 ft 250 kts 34°
2026-04-28 00:24 39.47840 -74.18826 21658 ft 249 kts 34°
2026-04-28 00:24 39.49163 -74.17378 21530 ft 249 kts 34°
2026-04-28 00:24 39.50483 -74.15933 21406 ft 248 kts 34°
2026-04-28 00:24 39.51774 -74.14518 21319 ft 246 kts 34°
2026-04-28 00:25 39.52980 -74.12938 21316 ft 245 kts 43°
2026-04-28 00:25 39.54058 -74.11238 21317 ft 243 kts 44°
2026-04-28 00:25 39.55126 -74.09550 21318 ft 241 kts 43°
2026-04-28 00:25 39.56197 -74.07876 21319 ft 240 kts 43°
2026-04-28 00:26 39.57262 -74.06214 21317 ft 240 kts 43°
2026-04-28 00:26 39.58322 -74.04555 21320 ft 239 kts 43°
2026-04-28 00:26 39.59383 -74.02890 21318 ft 239 kts 43°
2026-04-28 00:26 39.60439 -74.01235 21321 ft 238 kts 43°
2026-04-28 00:27 39.61496 -73.99577 21321 ft 238 kts 43°
2026-04-28 00:27 39.62551 -73.97922 21323 ft 238 kts 43°
2026-04-28 00:27 39.63601 -73.96273 21322 ft 238 kts 43°
2026-04-28 00:27 39.64653 -73.94620 21323 ft 237 kts 43°
2026-04-28 00:28 39.65708 -73.92962 21325 ft 237 kts 43°
2026-04-28 00:28 39.66759 -73.91310 21324 ft 237 kts 43°
2026-04-28 00:28 39.67809 -73.89657 21321 ft 237 kts 43°
2026-04-28 00:28 39.68857 -73.88007 21322 ft 237 kts 43°
2026-04-28 00:29 39.69905 -73.86356 21323 ft 237 kts 43°
2026-04-28 00:29 39.70955 -73.84702 21312 ft 237 kts 43°
2026-04-28 00:29 39.72016 -73.83032 21108 ft 244 kts 43°
2026-04-28 00:29 39.73110 -73.81308 20859 ft 250 kts 44°
2026-04-28 00:30 39.74213 -73.79563 20624 ft 254 kts 44°
2026-04-28 00:30 39.75354 -73.77758 20377 ft 256 kts 44°
2026-04-28 00:30 39.76472 -73.75991 20136 ft 257 kts 44°
2026-04-28 00:30 39.77610 -73.74191 19898 ft 258 kts 45°
2026-04-28 00:31 39.78746 -73.72393 19658 ft 258 kts 45°
2026-04-28 00:31 39.79883 -73.70593 19422 ft 257 kts 45°
2026-04-28 00:31 39.81018 -73.68795 19188 ft 257 kts 45°
2026-04-28 00:31 39.82151 -73.66999 18958 ft 256 kts 45°
2026-04-28 00:32 39.83281 -73.65206 18727 ft 256 kts 45°
2026-04-28 00:32 39.84404 -73.63424 18480 ft 255 kts 45°
2026-04-28 00:32 39.85529 -73.61638 18215 ft 254 kts 45°
2026-04-28 00:32 39.86646 -73.59865 17948 ft 253 kts 45°
2026-04-28 00:33 39.87763 -73.58090 17684 ft 253 kts 45°
2026-04-28 00:33 39.88878 -73.56316 17426 ft 253 kts 46°
2026-04-28 00:33 39.89994 -73.54545 17146 ft 252 kts 45°
2026-04-28 00:33 39.91241 -73.52973 16842 ft 249 kts 37°
2026-04-28 00:34 39.92535 -73.51463 16534 ft 251 kts 38°
2026-04-28 00:34 39.93832 -73.49933 16238 ft 252 kts 38°
2026-04-28 00:34 39.95131 -73.48394 15939 ft 252 kts 38°
2026-04-28 00:34 39.96434 -73.46851 15645 ft 253 kts 38°
2026-04-28 00:35 39.97719 -73.45333 15358 ft 253 kts 38°
2026-04-28 00:35 39.99028 -73.43784 15066 ft 253 kts 38°
2026-04-28 00:35 40.00332 -73.42239 14783 ft 254 kts 38°
2026-04-28 00:35 40.01641 -73.40689 14495 ft 254 kts 38°
2026-04-28 00:36 40.02947 -73.39140 14214 ft 254 kts 38°
2026-04-28 00:36 40.04256 -73.37587 13910 ft 254 kts 38°
2026-04-28 00:36 40.05567 -73.36030 13589 ft 254 kts 38°
2026-04-28 00:36 40.06872 -73.34481 13278 ft 254 kts 39°
2026-04-28 00:37 40.08158 -73.32954 12973 ft 253 kts 39°
2026-04-28 00:37 40.09384 -73.31496 12684 ft 253 kts 39°
2026-04-28 00:37 40.10687 -73.29947 12376 ft 252 kts 39°
2026-04-28 00:37 40.11983 -73.28404 12080 ft 252 kts 39°
2026-04-28 00:38 40.13283 -73.26857 11780 ft 252 kts 39°
2026-04-28 00:38 40.14578 -73.25315 11485 ft 251 kts 39°
2026-04-28 00:38 40.15871 -73.23774 11197 ft 251 kts 40°
2026-04-28 00:38 40.17162 -73.22234 10900 ft 251 kts 40°
2026-04-28 00:39 40.18450 -73.20698 10613 ft 250 kts 40°
2026-04-28 00:39 40.19732 -73.19167 10325 ft 250 kts 40°
2026-04-28 00:39 40.21001 -73.17650 10030 ft 250 kts 40°
2026-04-28 00:39 40.22281 -73.16121 9713 ft 249 kts 40°
2026-04-28 00:40 40.23558 -73.14594 9400 ft 248 kts 40°
2026-04-28 00:40 40.24824 -73.13080 9090 ft 246 kts 41°
2026-04-28 00:40 40.26084 -73.11571 8781 ft 243 kts 41°
2026-04-28 00:40 40.27325 -73.10084 8476 ft 241 kts 41°
2026-04-28 00:41 40.28556 -73.08610 8166 ft 239 kts 41°
2026-04-28 00:41 40.29774 -73.07149 7870 ft 237 kts 41°
2026-04-28 00:41 40.30984 -73.05698 7573 ft 234 kts 42°
2026-04-28 00:41 40.32181 -73.04262 7316 ft 231 kts 42°
2026-04-28 00:42 40.33335 -73.02876 7310 ft 220 kts 42°
2026-04-28 00:42 40.34450 -73.01538 7307 ft 216 kts 42°
2026-04-28 00:42 40.35564 -73.00202 7306 ft 218 kts 42°
2026-04-28 00:42 40.36682 -72.98858 7308 ft 219 kts 42°
2026-04-28 00:43 40.37808 -72.97503 7310 ft 220 kts 42°
2026-04-28 00:43 40.38932 -72.96151 7311 ft 220 kts 42°
2026-04-28 00:43 40.40062 -72.94791 7309 ft 220 kts 42°
2026-04-28 00:43 40.41191 -72.93432 7312 ft 220 kts 42°
2026-04-28 00:44 40.42318 -72.92074 7311 ft 220 kts 42°
2026-04-28 00:44 40.43445 -72.90716 7312 ft 220 kts 42°
2026-04-28 00:44 40.44573 -72.89355 7311 ft 220 kts 42°
2026-04-28 00:44 40.45683 -72.88017 7311 ft 219 kts 41°
2026-04-28 00:45 40.46802 -72.86666 7310 ft 218 kts 42°
2026-04-28 00:45 40.47916 -72.85321 7310 ft 218 kts 42°
2026-04-28 00:45 40.49030 -72.83975 7310 ft 216 kts 41°
2026-04-28 00:45 40.50130 -72.82646 7309 ft 214 kts 42°
2026-04-28 00:46 40.51329 -72.81521 7305 ft 212 kts 24°
2026-04-28 00:46 40.52796 -72.81237 7309 ft 217 kts 358°
2026-04-28 00:46 40.54226 -72.81919 7308 ft 227 kts 331°
2026-04-28 00:46 40.55448 -72.83215 7312 ft 228 kts 325°
2026-04-28 00:47 40.56658 -72.84582 7199 ft 233 kts 325°
2026-04-28 00:47 40.57718 -72.86246 6904 ft 248 kts 305°
2026-04-28 00:47 40.58482 -72.88332 6602 ft 256 kts 300°
2026-04-28 00:47 40.59184 -72.90457 6293 ft 243 kts 299°
2026-04-28 00:48 40.59817 -72.92414 5901 ft 223 kts 299°
2026-04-28 00:48 40.60399 -72.94229 5494 ft 208 kts 299°
2026-04-28 00:48 40.61070 -72.95863 5010 ft 198 kts 309°
2026-04-28 00:48 40.61835 -72.97239 4708 ft 182 kts 316°
2026-04-28 00:49 40.62379 -72.98086 4444 ft 178 kts 316°
2026-04-28 00:49 40.63514 -72.99818 4120 ft 201 kts 316°
2026-04-28 00:49 40.64155 -73.00775 3972 ft 210 kts 316°
2026-04-28 00:49 40.65376 -73.02587 3866 ft 183 kts 317°
2026-04-28 00:50 40.65924 -73.03410 3741 ft 172 kts 317°
2026-04-28 00:50 40.66676 -73.04580 3435 ft 167 kts 315°
2026-04-28 00:50 40.67445 -73.05813 2902 ft 177 kts 314°
2026-04-28 00:50 40.68217 -73.07066 2506 ft 176 kts 314°
2026-04-28 00:51 40.68992 -73.08309 2191 ft 176 kts 314°
2026-04-28 00:51 40.69774 -73.09528 1977 ft 175 kts 315°
2026-04-28 00:51 40.70575 -73.10723 1887 ft 178 kts 316°
2026-04-28 00:51 40.71335 -73.11841 1847 ft 141 kts 317°
2026-04-28 00:52 40.72008 -73.12672 1779 ft 132 kts 325°
2026-04-28 00:52 40.72764 -73.13423 1663 ft 139 kts 330°
2026-04-28 00:52 40.73579 -73.14052 1479 ft 133 kts 338°
2026-04-28 00:52 40.74422 -73.14473 1239 ft 128 kts 348°
2026-04-28 00:53 40.75228 -73.14651 1062 ft 109 kts
2026-04-28 00:53 40.75961 -73.14516 854 ft 106 kts 19°
2026-04-28 00:53 40.76635 -73.14099 704 ft 108 kts 35°
2026-04-28 00:53 40.77193 -73.13462 549 ft 104 kts 47°
2026-04-28 00:54 40.77698 -73.12795 425 ft 100 kts 46°
2026-04-28 00:54 40.78173 -73.12157 316 ft 98 kts 45°
2026-04-28 00:54 40.78642 -73.11542 181 ft 93 kts 45°
2026-04-28 00:54 40.79075 -73.10967 94 ft 80 kts 45°
2026-04-28 00:55 40.79318 -73.10705 95 ft 20 kts 346°
2026-04-28 00:55 40.79495 -73.10720 91 ft 29 kts 360°
2026-04-28 00:55 40.79639 -73.10721 91 ft 18 kts
2026-04-28 00:55 40.79755 -73.10720 91 ft 12 kts
2026-04-28 00:56 40.79804 -73.10758 93 ft 10 kts 270°
2026-04-28 00:56 40.79802 -73.10858 91 ft 12 kts 269°
2026-04-28 00:56 40.79804 -73.10916 91 ft 7 kts 289°
2026-04-28 00:56 40.79824 -73.10912 91 ft 4 kts 92°
2026-04-28 00:57 40.79824 -73.10899 91 ft 0 kts 89°